Regional Weather Roundup
Issued by NWS Charleston, WV

Home | Current Version | Previous Version | Graphics & Text | Print | Product List | Glossary On
Versions: 1 2 3 4 5 6 7 8 9 10 11 12 13 14 15 16 17 18 19 20 21 22 23 24 25 26 27
000
ASUS41 KRLX 260010
RWRRLX
West Virginia Regional Weather Roundup
National Weather Service Charleston WV
800 PM EDT WED APR 25 2018

Note: "fair" indicates few or no clouds below 12,000 feet with no
significant weather and/or obstructions to visibility.

WVZ003-260100-
Northern Panhandle of West Virginia

CITY           SKY/WX    TMP DP  RH WIND       PRES   REMARKS
WHEELING       CLOUDY    48  40  73 NW16G25   29.91R
$$

WVZ009-260100-
Northwest West Virginia

CITY           SKY/WX    TMP DP  RH WIND       PRES   REMARKS
PARKERSBURG    FAIR      54  44  69 NW6       29.93R
$$

WVZ006-260100-
Western West Virginia

CITY           SKY/WX    TMP DP  RH WIND       PRES   REMARKS
HUNTINGTON     FAIR      57  49  74 W3        29.91S
$$

WVZ015-260100-
West Central West Virginia

CITY           SKY/WX    TMP DP  RH WIND       PRES   REMARKS
CHARLESTON     DRIZZLE   55  54  96 NW8       29.90R FOG
$$

WVZ022-031-260100-
North Central West Virginia

CITY           SKY/WX    TMP DP  RH WIND       PRES   REMARKS
CLARKSBURG     CLOUDY    56  51  84 NW12      29.86R
MORGANTOWN     CLOUDY    54  49  83 NW8       29.87R
$$

WVZ025-035-042-045-260100-
Southern West Virginia

CITY           SKY/WX    TMP DP  RH WIND       PRES   REMARKS
BECKLEY        LGT RAIN  51  50  96 NW12G20   29.88R
LOGAN          CLOUDY    54  52  94 NW5       29.90S FOG
BLUEFIELD      CLOUDY    50  48  93 W10       29.89S
LEWISBURG      CLOUDY    55  50  83 NW5       29.86S
$$

WVZ047-260100-
Northern Mountains of West Virginia

CITY           SKY/WX    TMP DP  RH WIND       PRES   REMARKS
ELKINS         CLOUDY    52  49  89 NW6       29.86R
$$

WVZ052-260100-
Eastern Panhandle of West Virginia

CITY           SKY/WX    TMP DP  RH WIND       PRES   REMARKS
MARTINSBURG    CLOUDY    64  50  60 NW14      29.72R
PETERSBURG     FAIR      60  49  65 NW9       29.79R
$$




USA.gov is the U.S. government's official web portal to all federal, state and local government web resources and services.